Temp
61 61 61 61 61 60 60 61 61 61 61 62 62 62 62 62 63 68 62 71 70 72 72 74 75 75 72 68 70 65 51 44 50 58 59 65 66 72 74 71 74 76 73 77 82
61 61 61 60 60 60 60 60 60 61 61 61 61 61 61 61 64 65 76 74 73 73 74 71 69 71 66 65 66 60 49 53 63 60 60 61 63 68 71 68 70 73 79 81 81
60 60 60 60 60 60 60 60 60 61 61 61 61 61 61 60 64 68 79 74 73 73 72 72 72 66 61 62 63 58 54 60 65 66 67 63 61 68 64 64 69 69 74 78 76
60 60 59 59 60 59 59 60 60 61 61 61 61 61 61 63 53 73 78 75 75 74 76 74 69 63 56 57 60 53 64 63 65 67 63 65 67 65 67 69 75 76 76 75 76
59 59 59 59 59 59 59 59 60 60 60 60 61 62 64 62 64 80 78 77 78 77 73 69 64 59 54 58 62 54 61 66 66 65 65 68 67 69 65 73 75 75 77 74 73
58 58 58 58 58 59 58 58 58 59 59 61 62 62 65 57 79 82 79 77 77 70 74 71 63 64 58 57 54 61 62 62 63 64 63 63 66 65 70 73 73 73 72 73 72
58 57 58 58 58 58 58 58 58 59 61 63 63 68 64 67 81 79 75 70 75 78 73 73 72 67 61 58 63 61 58 62 65 62 62 63 60 61 69 70 70 71 72 72 72
57 57 57 58 58 58 59 58 59 60 62 64 64 64 63 79 78 76 76 78 83 82 76 77 75 66 61 61 62 57 51 45 58 63 66 60 51 64 68 66 65 68 69 71 70
57 57 57 58 58 58 58 58 60 63 63 64 61 63 62 79 78 82 77 76 79 79 78 84 71 64 61 53 48 48 44 47 53 62 60 56 52 61 66 65 66 67 68 69 70
57 57 57 57 58 57 57 59 63 64 69 73 75 61 68 73 80 82 80 80 77 73 72 69 59 54 52 48 39 45 44 48 49 57 56 50 53 60 63 63 64 67 68 69 70
57 57 56 57 57 56 58 64 64 63 64 65 69 69 76 82 83 78 82 77 75 67 56 60 52 47 52 55 57 54 52 49 54 58 54 50 52 59 60 61 63 65 63 64 67
57 57 57 57 57 56 54 62 68 71 60 72 73 74 79 80 72 77 81 69 64 55 59 53 48 58 64 62 58 56 50 52 55 58 53 52 53 58 60 59 58 59 59 59 61
56 56 56 56 56 57 64 70 74 73 57 68 73 74 75 77 71 72 77 70 62 56 56 49 57 65 63 58 56 54 50 50 49 54 53 51 49 53 59 56 59 59 59 59 60
56 56 55 54 62 62 66 75 72 70 49 61 68 75 77 72 68 81 79 72 61 57 57 54 62 62 57 55 54 45 55 54 52 46 37 49 37 48 52 51 55 56 55 58 61
56 56 56 54 57 63 73 70 69 67 40 67 70 79 76 69 70 72 78 70 60 60 57 54 55 55 53 53 56 50 57 52 50 42 37 42 36 41 48 47 52 55 59 59 61
56 56 55 58 54 65 70 68 68 50 43 63 70 66 63 66 69 72 70 72 68 60 59 55 63 59 56 59 58 58 50 46 42 36 27 37 34 34 41 46 51 59 60 62 61
55 55 52 65 65 68 68 63 48 43 65 59 59 63 59 60 64 64 61 56 50 44 44 52 54 58 62 51 52 49 38 24 25 23 26 41 37 39 48 54 56 57 59 60 59
54 53 55 68 66 66 62 54 41 59 57 64 62 61 56 60 60 60 55 50 57 52 41 40 40 53 59 50 44 43 38 25 22 22 31 43 32 39 52 56 59 60 58 61 54
52 57 61 67 68 64 56 44 46 55 63 59 58 53 52 58 56 54 51 50 55 53 41 37 42 56 58 55 51 43 30 41 28 31 26 32 40 46 50 56 57 57 56 54 56
46 55 61 71 68 61 52 47 55 65 65 61 49 54 46 50 50 48 48 57 55 57 53 45 35 52 55 55 53 45 47 32 31 20 22 30 35 36 44 47 51 50 49 51 54
52 57 68 70 65 55 46 49 59 68 66 58 52 50 50 48 49 47 50 56 58 57 52 44 35 42 48 44 42 39 35 38 38 32 27 24 29 43 48 47 47 48 50 47 49
48 53 68 67 54 48 49 57 59 63 65 61 58 54 50 50 46 47 48 52 58 55 45 45 37 30 39 50 52 46 41 39 24 29 30 32 33 54 48 52 48 47 47 47 48
46 49 65 64 45 45 53 59 61 60 60 59 55 57 54 47 40 48 52 58 58 53 45 45 32 24 36 41 46 41 44 43 37 34 27 29 34 53 54 46 45 44 44 46 49
49 47 51 52 51 46 46 51 54 64 60 59 55 55 49 46 48 45 49 55 57 55 59 50 35 34 32 39 41 39 44 45 38 32 34 36 37 45 47 44 43 44 44 45 49
48 44 46 41 46 46 46 51 52 52 58 57 52 52 47 39 43 43 48 50 53 56 49 44 34 37 41 43 44 43 43 44 40 40 34 38 39 44 43 40 42 45 47 48 47
44 42 44 43 47 48 47 47 50 52 51 49 47 51 49 42 43 39 43 43 42 47 44 41 34 37 37 44 45 41 44 43 43 44 39 40 38 46 41 42 43 45 46 44 45
46 47 44 43 44 43 44 48 50 50 53 56 52 47 46 47 50 50 51 52 50 45 44 39 36 33 32 42 43 36 40 41 41 42 39 31 42 39 39 40 43 43 42 42 44
MSLP
1018.04 1017.70 1017.45 1017.14 1016.85 1016.58 1016.35 1016.17 1016.03 1015.84 1015.59 1015.26 1014.92 1014.51 1014.07 1013.64 1012.64 1012.29 1012.26 1011.76 1011.65 1011.39 1011.26 1010.78 1009.98 1009.94 1009.91 1010.01 1009.86 1010.52 1012.20 1012.99 1012.02 1011.32 1010.73 1010.01 1009.50 1008.64 1008.40 1008.29 1007.83 1007.43 1007.30 1007.35 1007.06
1018.18 1017.73 1017.39 1017.11 1016.82 1016.52 1016.28 1016.03 1015.87 1015.72 1015.50 1015.22 1014.88 1014.52 1014.19 1013.90 1013.39 1012.54 1011.53 1011.27 1011.18 1011.37 1011.12 1011.14 1010.62 1010.35 1010.28 1010.10 1010.11 1010.74 1012.15 1012.10 1011.19 1010.70 1010.27 1009.99 1009.53 1009.12 1008.67 1008.08 1007.87 1007.42 1006.72 1006.60 1006.60
1018.30 1017.88 1017.50 1017.15 1016.79 1016.48 1016.23 1015.99 1015.76 1015.62 1015.44 1015.20 1014.90 1014.55 1014.25 1013.99 1013.49 1012.29 1011.21 1011.02 1010.97 1011.23 1011.26 1011.31 1010.93 1010.80 1011.06 1010.79 1011.16 1011.16 1011.40 1011.16 1010.76 1010.27 1009.85 1009.81 1009.69 1009.12 1009.07 1008.92 1008.18 1007.97 1007.48 1006.98 1007.03
1018.36 1017.91 1017.54 1017.16 1016.77 1016.42 1016.13 1015.95 1015.72 1015.56 1015.38 1015.14 1014.83 1014.44 1014.07 1013.86 1013.45 1011.85 1010.94 1010.77 1010.69 1010.98 1010.83 1010.92 1010.97 1011.28 1011.87 1011.99 1011.85 1011.63 1011.14 1010.88 1010.64 1010.37 1010.45 1009.84 1009.36 1009.31 1009.00 1008.70 1007.82 1007.50 1007.32 1007.21 1007.12
1018.47 1017.99 1017.56 1017.14 1016.70 1016.30 1015.97 1015.81 1015.65 1015.48 1015.35 1015.13 1014.77 1014.32 1013.88 1013.51 1012.55 1011.08 1010.96 1010.87 1011.03 1011.11 1011.15 1011.31 1011.57 1011.86 1012.33 1012.16 1011.85 1011.65 1011.43 1010.98 1010.72 1010.36 1010.11 1009.66 1009.34 1008.91 1008.83 1007.98 1007.43 1007.42 1007.10 1006.96 1007.17
1018.51 1018.02 1017.52 1017.07 1016.63 1016.18 1015.78 1015.56 1015.46 1015.34 1015.24 1015.03 1014.74 1014.45 1013.99 1012.83 1010.93 1010.71 1010.93 1011.24 1011.29 1011.42 1011.06 1011.15 1011.42 1011.58 1012.12 1012.36 1012.49 1011.90 1011.68 1011.27 1010.94 1010.64 1010.30 1009.96 1009.42 1009.01 1008.33 1007.86 1007.74 1007.47 1007.36 1006.94 1006.74
1018.47 1017.99 1017.48 1016.96 1016.47 1016.02 1015.62 1015.31 1015.20 1015.15 1015.00 1014.84 1014.69 1014.49 1013.86 1011.90 1010.60 1010.62 1011.31 1011.22 1011.06 1010.97 1010.91 1010.82 1010.96 1011.62 1012.13 1012.48 1012.07 1012.16 1012.30 1011.44 1010.71 1010.69 1010.44 1009.96 1009.58 1009.24 1008.55 1008.14 1007.93 1007.68 1007.29 1006.95 1006.71
1018.41 1017.94 1017.48 1016.90 1016.34 1015.82 1015.34 1014.98 1014.86 1014.85 1014.79 1014.70 1014.74 1014.48 1013.14 1010.75 1010.44 1010.68 1010.83 1010.76 1010.33 1010.22 1010.45 1010.46 1010.69 1011.40 1012.04 1012.28 1012.52 1012.79 1012.84 1012.46 1011.35 1010.81 1010.25 1010.28 1009.92 1009.26 1008.91 1008.60 1008.33 1008.11 1007.90 1007.28 1006.72
1018.31 1017.83 1017.37 1016.85 1016.25 1015.65 1015.05 1014.55 1014.32 1014.32 1014.38 1014.61 1014.69 1014.21 1012.72 1010.79 1010.51 1010.33 1010.36 1010.57 1010.36 1010.29 1010.25 1010.21 1010.81 1011.47 1012.08 1012.98 1013.66 1013.66 1013.36 1012.77 1011.96 1010.85 1010.57 1010.58 1010.25 1009.77 1009.18 1008.91 1008.38 1007.59 1007.03 1006.69 1006.27
1018.22 1017.70 1017.27 1016.75 1016.22 1015.61 1014.82 1014.22 1013.84 1013.76 1013.84 1014.14 1013.97 1014.03 1012.11 1010.72 1010.13 1009.90 1009.93 1010.29 1010.50 1010.53 1010.72 1010.79 1011.69 1012.29 1012.86 1013.77 1014.22 1013.67 1013.39 1012.51 1011.83 1010.83 1010.49 1010.73 1010.02 1009.69 1009.55 1009.21 1008.53 1007.84 1007.13 1006.66 1006.27
1018.16 1017.48 1016.91 1016.55 1016.16 1015.73 1014.72 1014.11 1014.29 1014.24 1013.91 1013.58 1013.02 1012.44 1011.24 1010.16 1009.55 1009.69 1009.67 1010.06 1010.47 1010.97 1011.76 1011.81 1012.76 1013.09 1013.23 1013.24 1013.14 1013.12 1012.70 1012.18 1011.29 1010.83 1010.77 1010.58 1009.81 1009.09 1009.28 1009.26 1008.59 1008.02 1007.77 1007.13 1006.50
1018.14 1017.44 1016.72 1016.09 1015.84 1015.69 1015.47 1014.87 1013.86 1013.28 1012.99 1012.09 1011.78 1011.54 1010.75 1010.43 1009.81 1009.33 1009.46 1010.27 1010.71 1011.58 1012.07 1012.68 1012.83 1012.46 1012.27 1012.24 1012.33 1012.24 1012.35 1012.05 1010.94 1010.74 1010.92 1010.70 1009.36 1009.07 1008.93 1009.14 1008.88 1008.68 1008.29 1007.72 1006.88
1018.16 1017.40 1016.61 1015.92 1015.36 1015.39 1014.91 1013.70 1012.79 1012.54 1013.26 1011.37 1010.62 1010.26 1009.82 1009.71 1009.57 1009.12 1009.54 1010.03 1010.80 1011.59 1012.17 1012.71 1012.40 1012.00 1011.94 1011.94 1012.11 1012.41 1012.98 1012.61 1012.12 1011.41 1011.19 1011.08 1009.76 1009.21 1008.80 1008.95 1008.91 1008.50 1008.25 1007.85 1007.19
1018.04 1017.32 1016.55 1015.71 1015.32 1015.25 1014.25 1013.09 1012.41 1012.52 1013.25 1011.34 1009.91 1009.12 1009.12 1009.38 1009.45 1008.61 1008.73 1009.85 1010.73 1011.44 1011.83 1012.15 1011.56 1011.78 1011.96 1012.32 1012.72 1012.71 1013.02 1012.89 1012.65 1012.48 1012.69 1012.24 1010.07 1010.04 1009.16 1009.30 1008.97 1008.48 1008.30 1007.62 1006.89
1017.84 1017.16 1016.55 1016.25 1016.00 1015.04 1013.63 1012.87 1012.47 1012.93 1012.94 1010.74 1009.91 1009.22 1009.45 1009.90 1009.30 1008.83 1008.68 1009.51 1010.55 1011.13 1011.58 1011.66 1011.72 1011.74 1012.09 1012.89 1012.95 1013.27 1013.14 1013.37 1013.30 1013.40 1013.50 1012.81 1012.15 1010.39 1009.91 1009.70 1009.06 1008.38 1008.04 1007.61 1007.06
1017.46 1016.95 1016.60 1015.97 1015.98 1014.04 1013.17 1012.87 1012.95 1013.83 1012.46 1011.13 1010.68 1010.58 1010.74 1010.42 1010.45 1010.06 1009.88 1010.10 1010.31 1011.04 1011.23 1011.55 1011.59 1011.55 1012.17 1012.59 1012.99 1013.39 1013.81 1013.76 1014.00 1014.44 1014.73 1014.12 1013.79 1011.67 1010.90 1010.17 1009.06 1008.09 1007.89 1007.72 1007.03
1016.89 1016.35 1016.37 1015.35 1014.46 1013.39 1013.25 1013.70 1014.24 1013.70 1012.27 1012.37 1011.99 1011.71 1011.69 1011.94 1011.40 1011.41 1011.53 1011.64 1011.94 1011.95 1012.49 1012.47 1012.10 1012.17 1012.32 1012.62 1013.19 1014.25 1015.37 1016.08 1016.23 1016.45 1016.10 1014.78 1014.14 1011.81 1010.72 1009.50 1009.08 1008.40 1008.10 1007.82 1007.65
1016.26 1015.56 1015.06 1014.26 1013.49 1013.81 1014.14 1014.66 1014.49 1013.61 1013.34 1013.08 1012.96 1012.53 1012.81 1012.96 1012.82 1012.68 1012.62 1012.84 1012.60 1013.02 1013.52 1013.42 1012.84 1012.93 1013.23 1013.77 1014.38 1014.92 1016.05 1017.71 1018.02 1017.75 1016.18 1015.12 1013.69 1011.60 1010.50 1009.34 1008.93 1008.41 1008.44 1008.45 1008.29
1015.90 1015.19 1014.88 1013.43 1013.22 1014.00 1014.92 1015.37 1014.89 1014.00 1013.69 1013.60 1013.44 1013.65 1014.01 1013.96 1014.12 1014.03 1014.04 1013.84 1013.89 1013.99 1014.65 1014.59 1014.16 1013.55 1013.60 1014.13 1014.86 1015.30 1016.33 1017.10 1017.74 1017.98 1017.26 1015.13 1013.23 1011.70 1010.33 1009.43 1009.06 1008.90 1008.74 1008.83 1008.71
1017.30 1016.01 1014.67 1012.70 1013.12 1014.45 1015.59 1015.56 1014.57 1013.86 1013.63 1013.76 1014.30 1014.65 1015.05 1015.16 1015.32 1015.35 1014.91 1014.14 1014.18 1014.35 1014.56 1015.25 1015.03 1014.34 1014.05 1014.17 1014.34 1015.32 1016.03 1017.06 1018.31 1018.37 1017.13 1014.90 1013.20 1011.50 1010.48 1009.78 1009.72 1009.73 1009.67 1009.60 1009.24
1017.25 1016.16 1013.63 1013.08 1013.66 1015.19 1016.25 1015.74 1014.77 1013.96 1013.67 1013.95 1014.49 1015.06 1015.61 1015.90 1016.03 1015.92 1015.32 1014.68 1014.37 1014.58 1014.86 1015.64 1016.56 1015.59 1015.23 1015.12 1014.89 1015.44 1015.90 1016.75 1017.68 1018.01 1017.08 1015.17 1012.83 1011.00 1010.31 1009.93 1010.30 1010.09 1010.06 1010.01 1009.73
1018.52 1017.02 1014.03 1013.64 1015.14 1016.33 1016.69 1015.98 1015.15 1014.45 1014.01 1013.99 1014.32 1015.00 1015.60 1016.01 1016.19 1016.16 1015.59 1015.02 1014.73 1015.04 1015.61 1016.09 1016.65 1016.64 1015.86 1014.54 1014.47 1015.17 1015.57 1016.25 1017.43 1017.31 1016.68 1015.40 1011.90 1010.10 1010.01 1010.33 1010.37 1010.43 1010.28 1009.99 1009.80
1020.37 1018.38 1014.97 1014.53 1017.05 1017.95 1017.33 1016.48 1015.53 1014.94 1014.56 1014.61 1014.95 1015.48 1015.75 1016.38 1016.69 1016.08 1015.56 1015.02 1015.02 1015.37 1015.82 1016.28 1017.14 1017.14 1015.92 1015.07 1014.67 1014.65 1015.07 1015.61 1016.10 1016.21 1015.60 1014.72 1011.67 1010.13 1009.88 1010.62 1010.53 1010.62 1010.42 1010.20 1009.83
1020.79 1019.94 1018.23 1017.95 1018.68 1018.73 1018.51 1017.40 1016.45 1015.38 1015.29 1015.36 1015.59 1015.73 1016.23 1016.59 1016.86 1016.41 1015.94 1015.31 1015.09 1015.31 1015.44 1015.96 1016.90 1017.15 1016.57 1015.28 1015.05 1014.59 1014.28 1014.46 1015.09 1015.23 1014.23 1013.03 1011.73 1010.02 1010.66 1010.81 1010.86 1010.50 1010.53 1010.17 1009.61
1021.75 1022.36 1022.03 1021.27 1020.23 1019.83 1019.29 1018.45 1017.57 1016.82 1016.14 1015.93 1016.09 1016.53 1016.85 1016.95 1016.98 1016.65 1016.19 1015.73 1015.09 1014.97 1015.43 1016.17 1016.74 1016.60 1015.73 1015.00 1014.67 1014.12 1013.73 1012.91 1013.61 1013.43 1013.37 1011.92 1011.49 1010.50 1010.73 1011.24 1010.86 1010.58 1010.19 1009.45 1008.88
1023.45 1023.69 1023.16 1022.72 1021.64 1020.72 1019.89 1019.26 1018.60 1018.09 1017.42 1017.02 1017.07 1016.87 1016.89 1017.17 1017.25 1016.97 1016.74 1016.27 1015.47 1015.04 1015.56 1016.09 1015.95 1015.78 1014.94 1014.50 1014.17 1013.24 1013.02 1012.44 1012.20 1012.05 1011.88 1011.78 1010.96 1010.58 1011.02 1011.13 1010.63 1010.41 1010.19 1009.57 1008.71
1024.49 1024.15 1024.21 1023.20 1022.40 1021.62 1021.05 1020.29 1019.34 1018.75 1017.73 1017.36 1017.39 1017.20 1016.89 1016.86 1016.85 1016.46 1015.93 1015.14 1014.65 1015.10 1015.08 1015.92 1015.85 1015.88 1014.38 1014.03 1013.50 1012.62 1011.64 1011.71 1011.55 1011.64 1012.03 1011.89 1011.01 1011.27 1011.32 1011.30 1010.76 1010.07 1009.86 1008.78 1008.29
Wind_Speed
17 15 13 13 12 12 12 12 12 11 12 12 12 12 13 15 15 3 3 5 4 7 8 9 4 5 3 4 4 4 6 1 3 6 5 6 8 7 4 4 2 5 2 3 5
17 15 14 13 13 12 12 13 13 12 11 11 11 12 12 13 4 3 6 8 9 4 6 8 9 8 4 3 2 6 5 6 5 3 5 3 3 5 8 9 6 9 13 9 7
17 15 14 14 14 13 12 12 13 13 12 11 11 11 11 7 4 5 6 10 9 2 3 2 7 1 5 4 7 3 3 4 5 5 5 2 3 3 2 7 8 7 8 9 3
17 16 15 15 14 13 13 13 14 14 12 11 10 12 13 0 4 5 10 10 9 3 7 7 7 8 5 6 4 2 5 1 5 5 6 8 5 4 6 11 10 10 7 4 9
18 17 16 15 14 14 13 13 12 12 11 11 10 11 1 5 4 9 9 9 8 6 4 5 7 4 6 5 9 1 5 9 9 11 9 7 11 16 6 14 11 10 9 8 9
19 17 16 15 15 14 13 11 9 8 8 8 9 10 2 2 5 7 9 4 6 3 2 4 1 2 2 5 0 4 8 10 6 10 7 6 12 6 11 7 9 8 11 11 9
18 18 17 16 15 14 13 11 8 6 6 6 7 4 1 8 4 7 6 4 4 4 3 3 2 4 1 7 5 3 10 12 12 5 6 4 10 4 5 7 7 9 10 10 10
19 17 17 16 15 14 13 11 9 6 4 0 3 1 5 6 0 1 7 4 6 6 2 6 5 3 4 3 8 6 1 3 8 4 7 3 10 9 11 9 11 6 7 9 10
20 18 17 16 16 15 16 14 8 5 7 4 1 3 9 9 0 5 2 2 4 5 8 5 6 7 2 3 6 4 5 6 7 7 5 5 10 6 8 9 14 15 13 11 13
22 20 17 15 15 15 19 9 3 8 3 4 2 3 5 5 4 3 3 3 5 4 8 7 6 1 5 6 5 8 5 6 7 7 4 3 10 8 7 8 14 16 17 15 14
23 22 20 16 13 12 10 5 7 6 2 7 6 5 9 3 2 3 5 4 2 6 3 5 7 5 7 9 12 8 7 8 7 4 5 3 11 13 5 9 16 17 13 13 15
24 23 21 20 14 9 1 1 5 7 8 10 12 10 15 7 4 6 3 5 1 2 5 8 4 5 10 8 8 11 8 15 11 3 2 6 19 10 8 7 6 8 10 8 12
23 22 21 20 20 2 2 6 4 7 2 8 6 5 7 8 8 13 10 5 3 1 5 3 10 11 11 10 12 10 9 10 8 6 2 5 14 12 11 1 5 7 6 7 7
23 21 20 24 3 4 4 7 1 5 5 7 2 3 1 2 5 8 6 7 2 7 6 5 7 8 10 4 7 3 10 6 12 8 4 5 20 7 8 6 5 8 8 8 11
24 20 17 6 2 2 5 7 2 7 4 2 3 4 8 3 5 3 2 4 7 8 3 11 4 5 4 2 3 4 11 7 8 3 0 3 7 6 6 6 8 10 9 9 11
26 20 13 4 1 7 8 6 6 6 3 3 4 4 4 3 5 8 5 4 4 3 2 3 4 3 3 3 2 8 8 6 3 2 3 1 3 6 3 7 8 14 11 10 11
27 21 6 2 4 4 6 6 6 4 5 6 5 6 4 7 7 10 7 7 4 6 3 3 1 2 5 6 5 10 7 6 8 6 5 2 9 9 5 5 5 8 9 9 9
30 21 6 5 5 6 5 6 4 1 4 5 4 6 5 10 7 10 9 9 6 4 2 3 6 3 6 3 4 5 4 5 6 3 14 4 6 5 6 8 4 4 6 7 3
24 3 2 6 5 4 7 5 1 3 4 4 5 5 6 14 6 8 7 3 5 6 3 4 4 7 3 2 3 5 2 4 0 3 3 4 6 7 8 7 5 9 9 9 9
4 4 4 5 6 6 6 3 4 2 2 3 4 3 5 5 6 7 4 3 2 2 3 3 8 6 0 4 2 2 4 2 3 3 5 5 6 9 6 6 7 8 6 6 9
3 4 6 4 6 6 3 2 4 6 2 2 1 2 2 3 3 4 5 9 1 4 1 3 4 5 4 3 8 5 3 3 3 4 3 5 6 4 14 5 8 4 5 7 9
3 3 5 4 5 2 3 4 5 6 3 2 3 2 1 4 4 3 5 3 7 3 4 3 3 4 7 18 10 6 7 4 4 5 6 8 13 12 3 4 4 4 6 7 7
3 3 4 6 4 4 6 5 2 6 6 4 2 4 2 2 5 3 6 5 7 6 4 3 3 5 11 7 6 1 4 5 4 2 7 7 8 7 13 3 2 7 7 6 8
3 6 7 7 2 3 5 5 7 8 3 3 1 2 4 2 3 8 12 7 6 9 13 7 5 10 13 15 5 13 17 15 6 6 12 16 18 23 7 6 8 11 7 8 12
5 1 1 6 5 5 4 2 5 6 5 6 5 5 4 5 5 8 5 8 6 11 1 4 7 7 11 15 12 16 20 24 17 17 15 20 18 17 8 7 10 8 11 20 21
3 4 5 4 6 7 6 5 5 7 2 4 4 8 6 6 6 6 4 4 9 6 7 2 7 4 9 13 14 21 21 22 22 13 7 7 17 7 2 5 12 16 17 22 21
4 4 4 5 5 4 2 5 6 6 6 6 6 5 5 2 6 10 12 17 19 12 15 6 4 2 12 6 12 11 14 7 5 4 4 8 15 7 10 14 18 19 21 24 19
Wind_Direction
7 5 0 355 349 343 339 338 342 345 345 344 342 335 333 337 319 45 358 235 272 318 319 283 313 314 203 231 200 110 65 19 335 330 267 305 14 320 274 20 4 316 102 177 271
8 5 358 354 349 343 338 335 335 336 337 339 334 328 330 336 358 343 265 269 269 325 354 7 316 3 345 296 335 97 104 219 220 247 263 189 64 311 355 347 336 339 330 348 354
7 2 358 352 346 341 335 332 328 329 331 333 327 320 324 320 28 303 261 269 276 358 250 270 272 214 52 360 348 328 172 189 274 250 298 313 212 217 201 296 278 267 283 312 358
4 360 353 348 342 337 332 330 326 327 329 331 326 321 316 6 96 254 264 268 296 359 343 2 11 25 29 356 337 11 311 16 279 343 337 311 293 277 190 239 240 249 217 260 293
358 355 349 343 338 333 328 329 329 328 330 330 328 331 29 29 245 239 248 280 332 343 330 37 42 25 1 328 351 64 319 325 321 322 312 316 308 285 244 265 266 259 267 267 258
356 353 347 340 336 330 326 328 329 331 335 330 327 318 24 31 237 214 213 292 253 336 345 33 358 315 299 308 77 291 312 298 296 305 299 315 292 5 285 297 294 293 280 272 259
352 348 345 340 335 329 325 324 328 330 336 326 331 333 30 233 197 206 155 235 232 199 306 263 196 92 322 311 279 289 332 322 304 310 295 307 327 274 293 312 277 278 291 288 281
351 347 344 341 335 328 322 315 309 300 296 105 356 319 258 265 308 277 185 314 356 317 268 261 202 170 162 253 346 328 153 310 293 6 288 83 279 296 328 354 334 312 275 278 270
348 346 342 340 336 331 320 309 291 289 236 220 33 60 281 304 205 229 164 221 279 298 310 275 128 192 24 51 351 342 255 246 300 242 260 57 288 311 333 340 318 314 306 301 299
346 343 339 336 334 331 318 285 302 329 110 176 254 2 279 236 196 215 193 217 267 329 349 12 49 17 10 74 265 269 236 251 259 286 70 350 274 302 309 313 302 304 300 301 289
344 340 336 333 334 334 346 8 18 1 48 216 231 238 291 221 185 221 221 160 277 48 353 331 41 310 256 234 249 258 275 271 270 217 331 265 272 301 313 297 293 294 300 298 305
341 338 334 328 326 326 177 56 212 212 302 231 241 245 256 274 279 274 116 158 150 307 346 13 291 258 301 310 318 326 310 298 295 245 284 308 288 303 310 266 272 293 308 326 310
338 334 331 324 317 115 170 234 297 86 16 295 213 220 230 166 225 265 156 188 170 247 274 184 252 287 305 300 309 293 330 307 275 310 182 299 293 317 303 301 295 314 295 280 322
337 333 332 324 12 325 287 288 282 88 59 281 191 262 194 154 276 252 172 150 184 221 239 226 251 306 306 326 356 294 328 315 320 343 298 91 289 322 283 303 297 320 326 312 339
335 332 331 304 269 335 266 324 11 57 51 186 58 328 341 219 279 281 162 66 200 219 159 253 320 290 66 326 356 261 312 284 278 281 22 224 268 321 345 321 313 319 327 324 350
333 331 331 95 237 242 305 305 55 47 355 18 66 347 349 314 319 7 357 31 255 238 255 253 257 60 128 278 16 300 342 325 347 57 38 244 95 270 296 280 314 328 332 336 358
329 324 310 315 232 326 337 42 47 99 346 2 346 332 351 344 4 19 346 359 321 338 327 339 176 91 45 355 29 23 29 328 350 1 230 0 314 262 282 324 301 321 313 340 10
324 315 205 229 259 9 41 53 74 307 9 48 323 323 65 12 345 359 6 349 1 37 337 356 330 49 345 102 291 312 139 164 285 273 291 274 241 251 263 285 264 291 277 27 37
322 341 336 263 223 88 69 65 261 1 348 359 344 38 352 349 346 14 342 289 47 30 15 351 268 327 306 104 114 295 8 244 81 259 313 245 289 303 272 308 343 320 21 6 5
349 346 272 269 118 65 74 229 182 79 116 52 66 13 331 335 10 12 299 287 348 105 138 244 292 250 269 13 348 79 198 198 10 304 273 271 257 256 266 275 327 340 359 332 350
26 41 259 112 62 47 117 246 343 338 130 127 83 293 335 332 324 290 264 307 255 306 290 112 134 272 25 288 290 325 333 47 147 200 273 291 256 260 268 275 264 270 360 354 348
13 44 318 60 44 26 49 7 300 351 328 219 143 145 199 292 276 272 244 249 356 354 343 271 189 280 252 274 261 200 207 151 135 279 243 265 279 276 184 213 135 340 320 318 321
34 271 323 79 70 342 314 296 267 321 343 359 47 16 310 295 334 239 288 324 306 18 321 223 282 337 312 344 3 119 248 230 212 214 221 270 273 270 320 326 304 284 283 299 303
46 3 331 30 87 93 13 305 334 321 122 61 283 324 16 317 200 286 291 290 325 299 279 169 197 186 252 259 258 289 284 275 223 259 278 263 277 279 263 285 302 290 287 280 293
27 357 54 319 330 332 187 322 330 352 351 13 8 13 306 285 272 260 292 298 262 269 251 152 242 221 243 262 264 268 279 283 273 264 264 281 271 283 287 218 253 290 306 315 311
61 29 348 288 296 321 15 358 356 342 294 320 321 302 297 273 235 280 273 251 245 267 245 215 257 243 267 269 269 276 275 274 275 274 246 266 279 301 324 307 311 316 312 301 302
327 336 106 276 326 9 1 326 310 340 292 351 337 326 309 260 262 247 249 266 262 261 279 208 211 191 270 267 285 274 250 247 261 261 239 257 280 11 323 312 302 308 306 299 296